This is the latest recevied weather packets stored in our database for station/object OE3MHU-13. If no packets are shown the sender has not sent any weather packets the latest 10 day(s).
| Time | Temp. | Humidity | Pressure | Rain* | Wind** | Luminosity | Snow |
|---|---|---|---|---|---|---|---|
| 1777562897 | 16.67° C | 28% | 1029.1 hPa | 0 mm | - | - | - |
| 1777562590 | 17.22° C | 27% | 1029.1 hPa | 0 mm | - | - | - |
| 1777562284 | 17.78° C | 27% | 1029.2 hPa | 0 mm | - | - | - |
| 1777562088 | 17.22° C | 28% | 1029.2 hPa | 0 mm | - | - | - |
| 1777562082 | 17.78° C | 28% | 1029.1 hPa | 0 mm | - | - | - |
| 1777561367 | 17.78° C | 26% | 1029.2 hPa | 0 mm | - | - | - |
| 1777561060 | 17.22° C | 27% | 1029.1 hPa | 0 mm | - | - | - |
| 1777560874 | 16.67° C | 27% | 1029.3 hPa | 0 mm | - | - | - |
| 1777560863 | 16.67° C | 28% | 1029.3 hPa | 0 mm | - | - | - |
| 1777560145 | 17.22° C | 27% | 1029.2 hPa | 0 mm | - | - | - |
| 1777559837 | 16.67° C | 28% | 1029.4 hPa | 0 mm | - | - | - |
| 1777559642 | 16.67° C | 29% | 1029.4 hPa | 0 mm | - | - | - |
| 1777559634 | 16.67° C | 29% | 1029.5 hPa | 0 mm | - | - | - |
| 1777558918 | 16.11° C | 29% | 1029.4 hPa | 0 mm | - | - | - |
| 1777558612 | 16.11° C | 29% | 1029.5 hPa | 0 mm | - | - | - |
| 1777558306 | 17.22° C | 28% | 1029.5 hPa | 0 mm | - | - | - |
| 1777558001 | 17.22° C | 28% | 1029.7 hPa | 0 mm | - | - | - |
| 1777557694 | 17.78° C | 29% | 1029.9 hPa | 0 mm | - | - | - |
| 1777557388 | 17.22° C | 29% | 1029.7 hPa | 0 mm | - | - | - |
| 1777557083 | 17.22° C | 29% | 1029.9 hPa | 0 mm | - | - | - |
| 1777556776 | 16.67° C | 27% | 1029.9 hPa | 0 mm | - | - | - |
| 1777556470 | 17.22° C | 29% | 1029.8 hPa | 0 mm | - | - | - |
| 1777556164 | 16.67° C | 30% | 1029.9 hPa | 0 mm | - | - | - |
| 1777555859 | 16.67° C | 29% | 1030.1 hPa | 0 mm | - | - | - |
| 1777555672 | 16.11° C | 30% | 1030.2 hPa | 0 mm | - | - | - |
* Rain latest hour (hover to see other rain measurements)
** Current wind speed in m/s (hover to see current wind gust speed)